CAPE
1 0 0 0 0 0 0 0 0 0 0 0 0 0 0 0 0 0 0 0 0 0 0 0 0 0 0 0 0 0 0 0 0 0 0 0 0 0 0 0 0 0 0 0 0 0 0
0 2 2 0 0 0 1 1 0 0 0 0 0 0 0 0 0 0 0 1 0 0 0 3 0 0 0 0 0 0 0 0 0 0 0 0 0 0 0 0 0 0 0 0 0 0 0
5 2 2 0 0 0 0 0 0 0 0 0 0 0 0 0 0 0 2 0 1 2 0 8 0 0 0 0 0 0 0 0 0 0 0 0 0 0 0 0 0 0 0 0 0 0 0
10 6 5 0 0 0 0 0 0 0 0 0 0 0 0 0 0 0 2 0 1 2 1 13 0 0 0 0 0 0 0 0 0 0 0 0 0 0 0 0 0 0 0 0 0 0 0
7 10 9 2 1 2 2 1 0 0 0 0 0 0 0 0 0 0 4 3 1 3 12 1 0 0 0 0 0 0 0 0 0 0 0 0 0 0 0 0 0 0 0 0 0 0 0
12 17 13 10 0 0 1 2 2 0 0 0 0 0 0 0 0 0 6 7 1 2 2 0 0 0 0 0 0 0 0 0 0 0 0 0 0 0 0 0 0 0 0 0 0 0 0
14 10 12 14 2 4 3 8 4 1 2 0 0 0 0 0 0 1 1 0 0 0 0 0 0 0 0 0 0 0 0 0 0 0 0 0 0 0 0 0 0 0 0 0 0 0 0
12 13 17 14 7 5 5 6 3 1 1 0 0 0 0 0 0 0 0 0 0 0 0 0 0 0 0 0 0 0 0 0 0 0 0 0 0 0 0 0 0 0 0 0 0 0 0
9 9 15 16 18 9 0 1 0 1 0 0 0 0 0 0 1 6 1 0 0 0 0 0 0 0 0 0 0 0 0 0 0 0 0 0 0 0 0 0 0 0 0 0 0 0 0
14 8 12 22 20 26 11 0 0 0 0 0 0 0 0 0 2 8 2 0 0 0 0 0 0 0 0 0 0 0 0 0 0 0 0 0 0 0 0 0 0 0 0 0 0 0 0
0 19 4 2 24 22 19 16 0 0 0 0 0 0 0 5 0 0 0 0 0 0 0 0 0 0 0 0 0 0 0 0 0 0 0 0 0 0 0 0 0 0 0 0 0 0 0
28 35 18 23 20 18 15 10 7 3 0 0 0 0 1 1 10 0 0 0 1 0 0 0 0 0 0 0 0 0 0 0 0 0 0 0 0 0 0 0 0 0 0 0 0 0 0
13 10 7 28 20 1 8 13 10 4 0 0 0 0 2 6 0 0 0 10 0 0 0 0 0 0 0 0 0 0 0 0 0 0 0 0 0 0 0 0 0 0 1 2 0 0 0
16 15 17 29 13 0 7 17 11 1 0 0 0 0 0 0 2 0 22 19 0 0 0 0 0 0 0 0 0 0 0 0 0 0 0 0 0 0 0 0 0 0 0 2 0 0 0
78 51 39 24 6 3 3 2 12 18 2 0 0 0 0 7 11 12 40 10 0 0 0 0 0 0 0 0 0 0 0 0 0 0 0 0 0 0 0 0 0 0 0 0 0 0 0
69 42 40 29 1 0 5 31 44 22 14 3 0 0 0 1 5 37 90 0 0 0 0 0 0 0 0 0 0 0 0 0 0 0 0 0 0 0 0 0 0 0 0 0 0 0 0
21 49 27 13 8 2 0 8 21 20 29 13 0 4 0 3 6 92 32 0 0 0 0 0 0 0 0 0 0 0 0 3 0 0 1 1 6 0 0 0 0 0 0 0 0 0 0
21 17 18 19 8 3 0 4 16 8 18 25 22 14 0 7 13 0 5 0 0 0 0 0 0 0 0 0 0 0 0 12 7 23 25 3 5 7 0 0 0 3 0 0 0 0 0
46 9 19 36 33 32 28 4 15 3 33 11 12 0 0 2 15 1 0 0 5 0 2 4 0 0 0 0 13 0 0 0 0 8 15 4 2 4 0 0 0 1 0 0 0 0 0
79 21 8 20 62 68 40 8 5 4 22 26 0 2 0 0 0 0 0 1 6 3 2 22 3 9 7 0 0 3 0 0 0 0 19 17 2 3 0 0 0 0 0 0 0 0 0
65 42 60 55 62 70 77 30 19 8 7 27 0 0 0 0 0 0 2 0 0 3 9 4 3 1 1 8 0 1 0 0 0 0 4 1 1 0 1 0 0 0 0 0 0 0 0
35 21 33 77 71 69 83 85 52 5 11 26 0 0 1 0 0 1 0 2 3 0 3 10 1 0 9 15 0 0 6 2 0 0 0 0 0 0 0 0 0 0 0 0 0 0 0
31 59 64 77 54 42 27 40 71 37 31 4 0 1 6 0 0 1 0 0 0 3 0 0 0 10 4 0 1 0 3 4 0 0 0 0 0 0 0 0 0 0 0 0 0 0 0
50 53 59 51 59 44 28 45 66 22 17 0 1 1 0 0 0 0 0 0 0 0 0 6 12 5 0 4 0 2 0 0 0 0 0 0 0 0 0 0 0 0 0 0 0 0 0
9 21 41 49 43 32 69 83 66 54 31 0 3 2 2 0 0 0 0 0 0 0 0 0 0 6 0 9 0 0 0 0 0 0 0 0 0 0 0 0 0 0 0 0 0 0 0
8 13 18 30 55 57 66 57 61 78 72 18 0 2 2 0 0 1 0 0 0 0 0 0 0 34 0 0 0 0 0 0 0 0 0 0 0 0 0 0 0 0 0 0 0 0 0
7 2 2 2 4 22 37 64 72 74 79 21 2 8 33 6 0 0 0 0 1 0 0 0 15 3 0 0 0 0 0 0 0 0 0 0 0 0 0 0 0 0 0 0 0 0 0
0 2 3 4 3 1 2 4 31 37 35 29 2 19 11 0 0 1 0 0 10 5 0 0 0 1 0 0 0 0 0 0 0 0 0 0 0 0 0 0 0 0 0 0 0 0 0
30 21 14 4 9 3 0 0 0 8 21 40 20 10 9 0 0 0 0 0 0 0 0 0 0 0 0 0 0 0 0 0 0 0 0 0 0 0 0 0 0 0 0 0 0 0 0
CIN
0 0 0 0 0 0 0 0 0 0 0 0 0 0 0 0 0 0 0 0 0 0 0 0 -3 0 0 0 0 0 0 0 0 0 0 0 0 0 0 0 0 0 0 0 0 0 0
-2 -4 -2 -1 0 0 -1 -1 0 0 0 0 0 0 0 0 0 0 0 0 0 0 0 -4 0 0 0 0 0 0 0 0 0 0 0 0 0 0 0 0 0 0 0 0 0 0 0
-4 -4 -6 0 0 0 -1 0 0 0 0 0 0 0 0 0 0 0 0 0 0 0 -1 -1 0 0 0 0 0 0 0 0 0 0 0 0 0 0 0 0 0 0 0 0 0 0 0
-8 -10 -8 -1 0 0 0 0 0 0 0 0 0 0 0 0 0 0 -1 0 -1 -1 -1 -4 -14 0 0 0 0 0 0 0 0 0 0 0 0 0 0 0 0 0 0 0 0 0 0
-5 -3 -3 -6 -7 -6 -5 -2 -1 0 0 0 0 0 0 0 0 0 -5 -2 -1 -1 -4 -7 0 0 0 0 0 0 0 0 0 0 0 0 0 0 0 0 0 0 0 0 0 0 0
-2 -1 -1 -2 -7 0 -5 -4 -3 0 0 -1 0 0 0 0 0 0 -6 -7 -4 -11 -10 0 0 0 0 0 0 0 0 0 0 0 0 0 0 0 0 0 0 0 0 0 0 0 0
-3 -1 0 -1 -5 -2 0 -1 -2 -1 -3 0 0 0 0 0 0 -5 -4 0 0 0 -1 0 0 0 0 0 0 0 0 0 0 0 0 0 0 0 0 0 0 0 0 0 0 0 0
-5 -4 -1 -1 -4 -3 -2 -1 -1 -2 -1 0 0 0 0 0 0 0 0 0 0 0 0 0 0 0 0 0 0 0 0 0 0 0 0 0 0 0 0 0 0 0 0 0 0 0 0
-6 -5 -7 -4 -1 -1 0 0 0 -2 0 0 0 0 0 0 -5 0 -5 0 0 -2 0 0 0 0 0 0 0 0 0 0 0 0 0 0 0 0 0 0 0 0 0 0 0 0 0
-5 -11 -6 -7 -4 -2 -5 -1 0 0 0 0 0 0 0 0 -1 -3 0 0 0 -12 0 0 0 0 0 0 0 0 0 0 0 0 0 0 0 0 0 0 0 0 0 0 0 0 0
-4 -7 -16 -19 -10 -5 -4 -4 -1 0 0 0 0 0 0 -9 -1 -1 0 0 0 -11 0 0 0 0 0 0 0 0 0 0 0 0 0 0 0 0 0 0 0 0 0 0 0 0 0
-4 -10 -16 -15 -14 -13 -9 -8 -8 -9 0 0 0 0 0 0 -2 0 0 0 -12 0 0 0 0 0 0 0 0 0 0 0 0 0 0 0 0 0 0 0 0 0 0 0 0 0 0
-9 -12 -17 -8 -10 -15 -15 -11 -9 -5 0 0 0 0 0 -3 0 0 -5 -3 0 0 0 0 0 0 0 0 0 0 0 0 0 0 0 0 0 0 0 0 0 0 -13 -5 -2 0 0
-3 -12 -12 -6 -11 -15 -20 -13 -12 -14 -1 0 0 0 0 0 -4 0 -7 0 0 0 0 0 0 0 0 0 0 0 0 0 0 0 0 0 0 0 0 0 0 0 0 -4 0 0 0
0 -3 -9 -13 -17 -19 -22 -17 -21 -12 -16 -1 0 0 0 -8 -7 -7 0 0 0 0 0 0 0 0 0 0 0 0 0 0 0 0 0 0 0 0 0 0 0 0 0 0 0 0 0
-2 -2 -3 -5 -10 0 -18 -17 -7 -12 -15 -12 0 0 0 -20 -12 0 0 0 0 0 0 0 0 0 0 0 0 0 0 0 0 0 0 0 0 0 0 0 0 0 0 0 0 0 0
-7 -1 -7 -8 -7 -13 0 -30 -7 -6 -9 -3 0 -2 0 -41 -31 0 -1 0 0 0 0 0 0 0 0 0 0 0 0 -22 0 0 -43 -10 -13 0 0 0 0 0 0 0 0 0 0
-5 -1 -2 -2 -5 -11 0 -27 -11 -12 -10 0 0 -1 0 -10 0 0 0 0 0 0 0 0 0 0 0 0 0 0 0 -26 -79 -54 -30 -94 -50 -13 0 0 0 -21 0 0 0 0 0
-10 0 0 -2 -6 -7 -15 -27 -10 -23 -3 -1 -1 -1 0 0 0 0 0 -1 -2 -2 -4 -2 0 0 0 0 -11 0 0 0 0 -53 -37 -83 -20 -12 -1 0 0 -18 0 0 0 0 0
-1 -4 -1 -1 0 0 -5 -16 -14 -20 -4 -3 0 -3 0 0 0 0 -1 0 0 -6 -1 -4 -2 -3 -2 0 0 -1 -1 0 0 0 -92 -69 -32 -35 0 0 0 0 0 0 -10 0 0
-1 0 -2 0 0 0 0 -7 -13 -14 -8 0 -2 -7 0 0 0 -1 -2 0 0 0 -1 -5 -6 -7 -12 -1 0 -6 0 -9 0 0 -17 -17 -11 0 -68 0 0 0 0 0 0 0 0
0 -1 -3 0 0 0 -1 0 -4 -15 0 -3 0 0 0 0 0 0 0 -1 -1 0 -2 -4 -5 0 -14 -11 0 0 -13 -10 0 0 0 0 -14 0 0 0 0 0 0 0 0 -11 -2
0 0 0 0 -1 -2 -4 -5 -3 -8 -1 -1 -1 -1 -4 0 0 -1 0 0 0 0 0 0 -2 -8 -20 0 -33 0 -9 -21 0 0 0 0 0 -3 0 0 -15 0 0 0 0 0 0
-1 0 -5 0 0 -2 -4 -5 -3 -14 -3 0 0 -4 -2 0 0 0 0 0 0 0 0 -28 -31 -20 0 -60 0 0 0 0 0 0 0 0 0 0 0 0 -1 0 0 0 0 0 0
-4 -4 -12 -2 -2 -1 -1 -2 -2 -6 -3 -1 -3 0 0 0 0 -1 0 0 0 0 0 0 0 -12 0 -16 0 0 0 0 0 0 0 0 0 0 0 0 0 0 0 0 0 0 0
-3 0 -1 0 -1 0 -2 -3 -1 0 0 0 0 -3 -2 0 0 0 -2 -1 0 0 -1 0 0 -18 0 0 0 0 0 0 0 0 0 0 0 0 0 0 0 0 0 0 0 0 0
0 -1 0 -1 0 -3 0 -1 -1 0 0 0 -1 -3 0 0 0 -8 0 0 -10 0 -2 0 -5 -1 0 0 0 0 0 0 0 0 0 0 0 0 0 0 0 0 0 0 0 0 0
0 0 0 0 -1 0 0 -4 -4 -1 -3 0 -1 -8 0 0 0 0 0 0 -23 -4 0 0 0 0 0 0 0 0 0 0 0 0 0 0 0 0 0 0 0 0 0 0 0 0 0
0 -2 0 0 0 0 0 0 -1 -4 -8 -1 0 -3 -1 0 0 0 0 0 0 0 -11 0 0 0 0 0 0 0 0 0 0 0 0 0 0 0 0 0 0 0 0 0 0 0 0
Wind_Speed
25 25 25 25 26 26 27 27 27 27 27 27 27 28 28 29 29 29 29 29 28 27 26 23 21 24 23 22 20 15 21 23 24 22 22 23 23 22 26 27 30 30 31 33 38 38 41
28 26 26 26 26 27 28 27 27 26 26 26 27 27 27 28 28 28 27 27 28 26 25 22 19 22 23 27 18 18 20 23 24 23 21 19 23 23 27 27 28 30 36 39 37 42 42
27 28 28 28 28 27 25 26 25 26 25 25 25 25 25 26 26 26 26 27 26 25 25 19 19 22 26 24 22 26 29 26 23 23 22 20 23 24 27 31 27 32 40 40 39 35 34
29 28 30 29 28 26 25 25 25 24 24 24 23 24 25 25 25 25 25 25 25 24 23 18 18 23 28 26 31 33 27 26 21 18 19 21 22 25 25 27 32 36 36 37 27 33 29
32 31 30 29 27 26 25 25 24 23 22 22 22 23 23 24 23 24 25 25 25 22 18 16 21 25 31 27 24 24 14 19 17 16 16 19 22 25 25 29 35 31 35 33 36 28 32
32 30 30 27 27 26 25 23 22 22 20 20 22 23 23 23 23 23 24 20 18 18 19 19 23 27 25 22 20 20 17 15 20 16 21 23 25 26 25 27 36 33 33 32 34 32 40
33 32 30 27 26 24 23 22 21 22 19 20 22 22 24 24 23 20 15 18 23 26 22 23 22 24 24 26 23 20 18 16 19 19 22 20 26 28 25 23 28 35 38 38 35 35 42
34 32 31 29 27 26 24 22 22 20 19 21 22 23 23 23 21 15 16 22 23 23 35 25 27 28 28 25 31 26 16 20 20 25 21 25 32 28 27 27 30 35 41 43 36 31 34
34 33 31 31 29 27 25 24 23 21 21 22 23 23 23 23 21 17 19 20 18 25 32 33 26 30 29 23 31 27 18 20 23 23 23 27 24 22 23 26 30 32 35 39 43 34 31
39 37 36 33 32 28 26 25 23 22 22 24 23 23 24 22 19 18 22 21 21 22 34 33 28 27 22 21 30 18 18 18 23 24 22 26 26 28 26 28 26 35 29 32 35 40 43
36 33 32 32 32 29 25 25 24 25 24 24 23 24 23 19 19 17 18 15 15 18 40 23 21 16 16 16 24 21 11 17 20 19 19 25 25 26 26 27 25 34 26 30 32 37 39
37 36 35 34 33 31 29 29 29 28 28 27 24 24 22 22 22 19 16 9 12 25 40 26 20 21 19 22 23 18 12 17 20 26 29 30 26 25 25 25 26 22 26 30 32 33 42
39 36 34 32 30 29 29 30 30 29 28 28 26 26 24 22 25 17 11 11 26 36 26 28 27 23 25 24 24 21 19 20 23 27 32 32 33 28 25 28 23 22 26 36 38 35 36
35 36 32 30 29 29 28 29 29 29 28 28 26 26 27 24 21 13 13 21 37 33 32 23 22 24 27 23 26 23 21 23 22 24 29 32 35 21 19 21 23 21 22 28 39 36 33
38 34 32 33 32 32 30 29 29 28 27 25 26 26 26 21 18 16 20 33 38 34 30 33 31 32 31 29 27 24 27 27 24 20 26 28 31 20 16 17 15 21 23 22 28 28 32
36 35 34 32 32 33 33 33 32 28 24 21 24 27 27 19 17 20 29 37 37 29 27 27 33 29 37 31 27 26 26 26 28 22 20 25 35 23 20 17 18 20 14 24 23 31 32
39 37 35 34 33 32 31 32 31 28 24 21 25 30 24 19 16 27 38 38 37 32 29 31 30 30 30 31 29 31 30 28 24 22 19 24 26 28 21 22 22 21 22 23 20 22 26
31 32 33 33 32 32 32 30 26 25 21 21 26 33 22 17 28 33 34 37 34 31 33 32 29 31 32 30 32 31 29 26 19 19 22 22 24 30 28 27 25 24 25 21 23 24 22
30 31 31 32 31 31 31 30 27 25 21 22 30 29 23 23 36 38 33 37 34 32 33 29 34 30 27 31 34 32 32 25 19 20 22 20 26 31 33 31 29 30 23 15 18 19 22
32 27 27 29 29 30 29 29 28 26 24 23 27 33 27 28 29 34 32 36 37 34 36 31 34 30 33 35 33 33 31 26 24 25 24 20 28 30 32 30 29 27 24 20 18 23 23
26 26 26 25 27 28 28 27 27 26 24 25 29 30 28 31 35 33 32 33 35 34 31 29 37 36 34 35 35 34 29 25 24 22 22 23 30 29 31 31 29 29 26 25 21 25 26
23 23 23 22 24 27 27 26 26 26 23 28 29 28 28 30 26 33 33 34 34 34 34 32 35 31 31 36 34 35 29 27 26 22 24 24 29 28 33 28 27 29 28 30 29 26 25
23 24 27 26 25 25 26 26 25 25 23 28 26 22 26 29 31 32 35 35 35 32 36 35 36 35 36 36 34 38 29 26 26 25 23 23 25 28 36 27 28 34 28 26 27 22 19
23 27 28 24 25 25 24 23 24 24 25 26 24 24 28 33 26 30 29 31 35 33 35 29 29 34 31 22 18 21 18 19 20 22 23 23 24 25 29 25 31 26 24 25 22 22 19
28 29 27 25 25 26 25 26 24 25 24 27 25 22 25 34 34 30 28 28 29 30 34 33 32 26 20 18 23 23 24 22 23 23 19 19 21 25 28 29 29 25 21 20 23 24 18
29 30 30 30 30 30 31 30 29 26 26 24 27 23 22 27 28 21 21 20 23 24 25 24 27 26 23 22 24 27 27 25 23 21 19 17 19 23 23 26 28 24 20 16 17 28 9
35 40 43 42 41 39 38 36 36 32 31 27 27 27 26 26 27 23 26 25 22 22 22 22 22 28 25 27 26 29 28 23 22 22 21 19 22 22 24 27 26 20 14 13 20 21 7
35 41 44 46 48 48 46 44 40 37 34 25 30 25 27 26 27 27 29 32 28 25 24 16 22 32 29 31 20 19 24 24 23 23 23 21 22 24 23 25 30 13 15 20 15 12 7
27 26 35 39 43 46 47 46 43 37 32 20 27 26 31 29 23 23 27 31 33 31 22 12 30 28 26 28 22 16 19 19 21 28 21 27 23 24 22 23 17 17 18 13 11 8 10
Wind_Direction
278 282 284 285 287 288 290 291 292 293 295 297 298 299 301 303 305 306 307 308 308 310 313 315 321 323 326 324 317 323 306 305 308 316 320 317 310 309 305 305 305 301 301 301 299 301 299
278 280 282 285 286 287 288 290 291 293 295 296 299 300 301 302 304 304 306 308 308 310 314 314 319 320 320 312 320 317 312 309 308 311 315 317 310 312 308 306 306 305 301 299 302 299 299
276 278 280 283 285 286 287 289 291 292 294 296 299 301 301 303 305 306 306 307 308 310 311 313 315 317 310 303 307 301 296 304 306 310 309 313 313 307 309 306 309 307 299 300 302 305 307
276 279 279 280 281 283 285 287 289 291 294 296 298 300 301 302 303 305 306 308 308 308 309 311 315 316 305 304 299 295 298 299 301 309 307 307 312 310 307 309 307 303 303 301 305 312 312
275 277 278 277 278 280 283 284 287 291 293 295 297 300 302 303 305 304 306 305 305 309 312 313 311 309 303 306 303 307 313 315 310 304 307 311 312 305 306 304 302 305 300 302 304 311 308
273 275 274 274 274 278 281 282 286 290 293 294 296 298 300 302 303 303 303 308 314 314 311 311 306 305 305 307 311 313 320 315 315 306 302 299 300 298 302 298 297 301 301 303 303 309 305
270 271 271 271 273 275 278 280 284 288 290 293 296 297 298 299 300 302 309 310 303 299 296 291 298 299 307 309 310 308 316 316 312 305 296 297 291 290 293 292 296 300 299 300 304 308 305
266 267 267 267 269 271 275 278 281 285 287 291 294 294 297 299 298 297 300 297 299 306 294 287 285 286 292 306 300 299 305 300 297 296 296 297 288 292 295 296 295 296 297 299 307 312 308
263 263 264 265 266 268 271 275 277 281 284 288 291 293 295 295 295 288 289 293 307 311 297 295 292 290 291 290 289 289 287 290 294 292 290 288 302 309 294 294 295 296 298 302 303 312 312
264 263 262 262 264 265 268 271 274 278 281 283 287 289 291 292 290 287 286 289 298 314 296 296 295 298 298 298 299 283 280 283 295 288 292 294 293 295 295 296 296 296 303 305 306 309 307
261 261 262 261 264 264 265 268 271 275 278 280 283 286 287 279 290 280 298 284 304 307 288 302 301 313 309 300 311 313 281 282 282 290 293 297 302 300 295 295 297 299 305 306 308 309 310
261 260 260 262 262 262 263 266 268 271 273 275 279 281 283 278 279 283 287 290 300 287 281 294 300 296 298 295 305 313 285 294 293 287 290 292 301 302 303 304 301 306 307 309 311 310 304
260 260 260 259 258 259 262 264 265 267 270 273 275 277 276 273 271 270 272 269 277 274 294 289 287 288 289 292 294 295 290 276 284 291 290 294 287 290 294 298 304 301 303 304 305 306 306
260 258 255 254 255 259 262 264 265 266 267 271 274 278 278 266 272 246 253 263 270 277 272 297 296 289 285 289 288 287 285 281 283 293 299 297 298 298 297 284 295 293 295 299 303 305 310
259 256 255 254 255 258 261 262 264 265 266 269 274 276 275 264 253 239 246 255 268 273 283 278 283 286 285 284 286 280 281 278 280 281 290 299 299 308 304 307 294 305 297 306 303 306 307
256 255 253 254 256 258 259 262 261 260 262 265 272 274 271 261 248 240 248 255 267 271 285 288 275 281 280 282 279 279 277 287 280 277 281 297 295 300 303 307 308 299 306 307 304 303 303
252 255 254 254 256 259 261 261 258 255 254 257 267 269 274 260 245 248 250 258 265 274 278 276 281 281 281 285 285 280 282 284 286 288 273 284 288 299 296 288 289 298 295 301 302 300 302
248 252 252 255 255 256 259 258 254 251 246 251 263 262 270 249 246 254 252 256 268 271 269 274 279 278 278 282 284 284 284 287 287 285 282 285 293 289 285 294 298 284 286 280 290 296 298
250 250 253 253 255 256 257 255 250 246 235 252 259 263 271 257 251 253 259 259 266 271 266 273 269 273 280 279 280 278 281 288 285 284 286 284 289 291 296 296 294 291 279 264 287 295 291
252 249 249 250 253 255 256 252 249 245 237 247 258 259 265 255 258 259 259 262 262 266 267 272 273 274 275 273 275 282 280 283 282 283 287 286 285 284 285 296 303 291 275 269 269 281 288
243 245 244 247 251 255 254 250 248 246 240 242 253 261 259 259 252 258 261 268 262 265 265 268 271 269 270 274 274 272 277 278 283 283 283 283 283 286 286 292 296 293 283 273 261 277 284
245 240 245 248 252 253 251 250 247 243 240 244 252 254 258 263 262 254 258 262 264 265 265 270 264 271 270 270 269 273 270 273 277 278 282 283 284 287 287 286 288 284 281 278 276 276 281
244 246 246 250 252 254 252 248 247 241 236 250 253 264 263 265 260 257 257 260 265 269 269 267 269 271 270 271 275 280 274 265 272 273 273 277 281 286 287 289 286 280 276 275 281 287 285
253 250 249 254 254 253 249 247 246 242 234 248 257 255 260 259 262 259 262 263 263 265 268 276 270 270 274 281 281 284 269 271 264 268 272 277 281 285 287 290 281 289 286 278 278 285 293
255 252 255 256 255 251 248 246 246 244 240 245 250 254 255 260 261 265 265 268 271 274 268 270 270 283 279 266 264 267 266 269 270 272 273 278 280 283 281 282 287 288 287 280 278 283 295
257 256 257 255 252 249 246 246 245 244 243 243 246 249 258 258 259 268 262 263 273 281 275 273 267 264 266 254 258 256 265 270 271 278 274 274 277 278 283 283 281 288 288 293 297 284 286
257 252 244 241 241 240 240 240 240 240 240 241 246 241 250 256 258 263 259 264 272 274 273 271 257 247 252 254 254 257 262 267 268 268 264 266 271 270 276 281 285 290 293 300 283 300 304
237 231 217 220 219 221 224 226 231 234 235 233 239 239 239 253 257 257 254 248 255 257 260 281 255 240 246 255 254 268 264 260 266 268 264 264 268 269 274 276 275 298 287 280 303 315 324
236 234 199 199 202 202 208 214 222 228 231 220 237 235 231 244 251 259 259 259 251 249 269 271 244 242 248 248 252 264 270 265 266 263 274 265 270 271 272 278 293 289 284 297 309 323 326